Location: Campillo
(40.8621°N, 4.2488°W)
Time: 12:49:49
(UTC+00:00)

Cosmos 923 Rocket - Pass Details

Date: 11 May 2021
Orbit: 758 x 785 km, 74.0° (Epoch: 13 June)

Event Time Altitude Azimuth Distance (km) Brightness Sun altitude
Rises 22:43:11 0° 337° (NNW) 3,246 8.5 -27.4°
Reaches altitude 10° 22:45:35 10° 334° (NNW) 2,320 7.5 -27.6°
Enters shadow 22:50:32 62° 270° (W) 868 4.2 -28.0°
